Regional Weather Roundup
Issued by NWS

Home | Current Version | Previous Version | Text Only | Print | Product List | Glossary Off
Versions: 1 2 3 4 5 6 7 8 9 10 11 12 13 14 15 16 17 18 19 20 21 22 23 24 25 26 27 28 29 30 31 32 33 34 35 36 37 38 39 40 41 42 43 44 45 46 47 48 49 50

000
ASUS43 KLMK 282002
RWRKY
KENTUCKY REGIONAL WEATHER ROUNDUP
NATIONAL WEATHER SERVICE LOUISVILLE KY
400 PM EDT THU MAY 28 2015

NOTE "FAIR" INDICATES FEW OR NO CLOUDS BELOW 12,000 FEET
WITH NO SIGNIFICANT WEATHER AND/OR OBSTRUCTIONS TO VISIBILITY.

KYZ001>023-026-027-061>063-070>075-282100-
WESTERN AND SOUTH CENTRAL KENTUCKY

CITY           SKY/WX    TMP DP  RH WIND       PRES   REMARKS
PADUCAH        SUNNY     84  63  49 VRB7      30.12F
HENDERSON      MOSUNNY   82  64  54 S6        30.12F
OWENSBORO      MOSUNNY   83  67  58 S10       30.15S
HOPKINSVILLE   NOT AVBL
BOWLING GREEN  MOSUNNY   82  65  56 E8        30.16F
GLASGOW        NOT AVBL
$$

KYZ024-025-028>034-038-045-046-053-282100-
NORTH CENTRAL KENTUCKY

CITY           SKY/WX    TMP DP  RH WIND       PRES   REMARKS
LOUISVILLE/SDF PTSUNNY   81  65  58 MISG      30.17F
LOUISVILLE/LOU MOSUNNY   80  66  62 S8        30.18F
FORT KNOX      MOSUNNY   82  67  61 SE8       30.15F
$$

KYZ035>037-039>044-047>052-055>060-089>105-282100-
NORTHEAST KENTUCKY

CITY           SKY/WX    TMP DP  RH WIND       PRES   REMARKS
LEXINGTON      PTSUNNY   77  67  71 S13       30.20F
COVINGTON      MOSUNNY   81  62  52 SE6       30.19F
FRANKFORT      PTSUNNY   80  65  59 VRB3      30.18F
$$

KYZ054-064>069-076>088-106>120-282100-
SOUTHEAST KENTUCKY

CITY           SKY/WX    TMP DP  RH WIND       PRES   REMARKS
JACKSON        CLOUDY    78  64  61 CALM      30.22F
LONDON         CLOUDY    75  62  64 NE3       30.21F
SOMERSET       NOT AVBL
MIDDLESBORO    CLOUDY    76  67  72 CALM      30.21F
MONTICELLO     MOCLDY    76  67  73 CALM      30.22F
$$



USA.gov is the U.S. government's official web portal to all federal, state and local government web resources and services.